Hourly Weather Otjinene

Today, 29 July, Thursday

Time Temperature Precipitation Wind Pressure Humidity
00:00 +7°C° 0 mm 2 mps 642 mmHg 41%
01:00 +7°C° 0 mm 2 mps 642 mmHg 42%
02:00 +7°C° 0 mm 2 mps 642 mmHg 45%
03:00 +6°C° 0 mm 2 mps 641 mmHg 49%
04:00 +6°C° 0 mm 2 mps 641 mmHg 52%
05:00 +6°C° 0 mm 2 mps 642 mmHg 49%
06:00 +7°C° 0 mm 2 mps 643 mmHg 45%
07:00 +8°C° 0 mm 2 mps 643 mmHg 42%
08:00 +13°C° 0 mm 2 mps 644 mmHg 34%
09:00 +16°C° 0 mm 3 mps 645 mmHg 27%
10:00 +20°C° 0 mm 3 mps 647 mmHg 20%
11:00 +21°C° 0 mm 4 mps 646 mmHg 17%
12:00 +22°C° 0 mm 4 mps 646 mmHg 15%
13:00 +23°C° 0 mm 5 mps 646 mmHg 12%
14:00 +23°C° 0 mm 5 mps 645 mmHg 12%
15:00 +23°C° 0 mm 5 mps 645 mmHg 12%
16:00 +23°C° 0 mm 6 mps 645 mmHg 12%
17:00 +20°C° 0 mm 5 mps 645 mmHg 16%
18:00 +17°C° 0 mm 4 mps 644 mmHg 20%
19:00 +13°C° 0 mm 4 mps 644 mmHg 23%
20:00 +12°C° 0 mm 4 mps 644 mmHg 26%
21:00 +11°C° 0 mm 4 mps 645 mmHg 28%
22:00 +10°C° 0 mm 4 mps 645 mmHg 30%
23:00 +8°C° 0 mm 4 mps 645 mmHg 31%

Tomorrow, 30 July, Friday

Time Temperature Precipitation Wind Pressure Humidity
00:00 +8°C° 0 mm 4 mps 644 mmHg 33%
01:00 +8°C° 0 mm 4 mps 644 mmHg 34%
02:00 +7°C° 0 mm 4 mps 644 mmHg 34%
03:00 +7°C° 0 mm 4 mps 644 mmHg 35%
04:00 +6°C° 0 mm 4 mps 644 mmHg 36%
05:00 +6°C° 0 mm 4 mps 644 mmHg 36%
06:00 +6°C° 0 mm 4 mps 645 mmHg 36%
07:00 +6°C° 0 mm 4 mps 645 mmHg 36%
08:00 +10°C° 0 mm 5 mps 646 mmHg 30%
09:00 +15°C° 0 mm 6 mps 647 mmHg 23%
10:00 +20°C° 0 mm 8 mps 648 mmHg 16%
11:00 +21°C° 0 mm 8 mps 648 mmHg 14%
12:00 +22°C° 0 mm 8 mps 647 mmHg 12%
13:00 +24°C° 0 mm 8 mps 647 mmHg 11%
14:00 +23°C° 0 mm 8 mps 647 mmHg 11%
15:00 +23°C° 0 mm 7 mps 646 mmHg 12%
16:00 +23°C° 0 mm 7 mps 646 mmHg 12%
17:00 +20°C° 0 mm 6 mps 646 mmHg 15%
18:00 +16°C° 0 mm 5 mps 646 mmHg 17%
19:00 +13°C° 0 mm 4 mps 646 mmHg 20%
20:00 +12°C° 0 mm 4 mps 646 mmHg 21%
21:00 +11°C° 0 mm 4 mps 646 mmHg 23%
22:00 +10°C° 0 mm 4 mps 646 mmHg 24%
23:00 +10°C° 0 mm 4 mps 646 mmHg 25%

Day after tomorrow, 31 July, Saturday

Time Temperature Precipitation Wind Pressure Humidity
00:00 +8°C° 0 mm 4 mps 645 mmHg 25%
01:00 +8°C° 0 mm 4 mps 645 mmHg 26%
02:00 +7°C° 0 mm 4 mps 645 mmHg 27%
03:00 +7°C° 0 mm 4 mps 645 mmHg 28%
04:00 +6°C° 0 mm 4 mps 645 mmHg 29%
05:00 +6°C° 0 mm 4 mps 645 mmHg 31%
06:00 +6°C° 0 mm 4 mps 646 mmHg 33%
07:00 +6°C° 0 mm 5 mps 646 mmHg 35%
08:00 +10°C° 0 mm 6 mps 647 mmHg 32%
09:00 +15°C° 0 mm 7 mps 648 mmHg 28%
10:00 +18°C° 0 mm 8 mps 649 mmHg 25%
11:00 +21°C° 0 mm 8 mps 649 mmHg 21%
12:00 +22°C° 0 mm 8 mps 648 mmHg 18%
13:00 +24°C° 0 mm 8 mps 647 mmHg 15%
14:00 +23°C° 0 mm 8 mps 647 mmHg 15%
15:00 +23°C° 0 mm 7 mps 647 mmHg 15%
16:00 +23°C° 0 mm 7 mps 646 mmHg 15%
17:00 +20°C° 0 mm 6 mps 646 mmHg 19%
18:00 +16°C° 0 mm 5 mps 646 mmHg 24%
19:00 +13°C° 0 mm 4 mps 646 mmHg 28%
20:00 +12°C° 0 mm 4 mps 646 mmHg 30%
21:00 +11°C° 0 mm 4 mps 646 mmHg 33%
22:00 +10°C° 0 mm 4 mps 646 mmHg 35%
23:00 +10°C° 0 mm 4 mps 645 mmHg 37%

1 August, Sunday

Time Temperature Precipitation Wind Pressure Humidity
00:00 +8°C° 0 mm 4 mps 645 mmHg 39%
01:00 +7°C° 0 mm 4 mps 645 mmHg 42%
02:00 +7°C° 0 mm 4 mps 645 mmHg 44%
03:00 +7°C° 0 mm 4 mps 644 mmHg 46%
04:00 +6°C° 0 mm 4 mps 644 mmHg 48%
05:00 +6°C° 0 mm 4 mps 644 mmHg 49%
06:00 +6°C° 0 mm 4 mps 645 mmHg 51%
07:00 +6°C° 0 mm 4 mps 645 mmHg 52%
08:00 +10°C° 0 mm 5 mps 646 mmHg 43%
09:00 +15°C° 0 mm 6 mps 647 mmHg 34%
10:00 +18°C° 0 mm 7 mps 648 mmHg 26%
11:00 +21°C° 0 mm 7 mps 647 mmHg 22%
12:00 +22°C° 0 mm 7 mps 647 mmHg 19%
13:00 +24°C° 0 mm 7 mps 646 mmHg 15%
14:00 +24°C° 0 mm 6 mps 646 mmHg 15%
15:00 +24°C° 0 mm 6 mps 646 mmHg 15%
16:00 +23°C° 0 mm 6 mps 645 mmHg 14%
17:00 +21°C° 0 mm 5 mps 645 mmHg 19%
18:00 +18°C° 0 mm 4 mps 645 mmHg 23%
19:00 +14°C° 0 mm 4 mps 644 mmHg 28%
20:00 +13°C° 0 mm 4 mps 644 mmHg 30%
21:00 +13°C° 0 mm 4 mps 644 mmHg 32%
22:00 +12°C° 0 mm 3 mps 645 mmHg 34%
23:00 +12°C° 0 mm 3 mps 644 mmHg 35%

2 August, Monday

Time Temperature Precipitation Wind Pressure Humidity
00:00 +11°C° 0 mm 4 mps 644 mmHg 37%
01:00 +11°C° 0 mm 4 mps 644 mmHg 38%
02:00 +10°C° 0 mm 4 mps 643 mmHg 40%
03:00 +8°C° 0 mm 4 mps 643 mmHg 42%
04:00 +8°C° 0 mm 4 mps 643 mmHg 44%
05:00 +8°C° 0 mm 4 mps 643 mmHg 44%
06:00 +9°C° 0 mm 3 mps 643 mmHg 45%
07:00 +9°C° 0 mm 3 mps 644 mmHg 46%
08:00 +13°C° 0 mm 4 mps 645 mmHg 37%
09:00 +17°C° 0 mm 5 mps 646 mmHg 29%
10:00 +22°C° 0 mm 5 mps 647 mmHg 20%
11:00 +23°C° 0 mm 5 mps 646 mmHg 18%
12:00 +25°C° 0 mm 4 mps 646 mmHg 16%
13:00 +26°C° 0 mm 3 mps 645 mmHg 13%
14:00 +26°C° 0 mm 3 mps 645 mmHg 13%
15:00 +26°C° 0 mm 2 mps 645 mmHg 13%
16:00 +26°C° 0 mm 2 mps 644 mmHg 12%
17:00 +23°C° 0 mm 2 mps 644 mmHg 16%
18:00 +19°C° 0 mm 3 mps 644 mmHg 19%
19:00 +16°C° 0 mm 3 mps 643 mmHg 22%
20:00 +16°C° 0 mm 3 mps 643 mmHg 25%
21:00 +14°C° 0 mm 4 mps 644 mmHg 27%
22:00 +13°C° 0 mm 4 mps 644 mmHg 29%
23:00 +12°C° 0 mm 4 mps 643 mmHg 30%

3 August, Tuesday

Time Temperature Precipitation Wind Pressure Humidity
00:00 +12°C° 0 mm 3 mps 643 mmHg 30%
01:00 +11°C° 0 mm 3 mps 643 mmHg 31%
02:00 +11°C° 0 mm 3 mps 643 mmHg 31%
03:00 +11°C° 0 mm 3 mps 643 mmHg 31%
04:00 +11°C° 0 mm 3 mps 642 mmHg 32%
05:00 +11°C° 0 mm 3 mps 643 mmHg 32%
06:00 +11°C° 0 mm 3 mps 643 mmHg 32%
07:00 +11°C° 0 mm 3 mps 644 mmHg 32%
08:00 +15°C° 0 mm 4 mps 645 mmHg 27%
09:00 +20°C° 0 mm 5 mps 646 mmHg 22%
10:00 +24°C° 0 mm 6 mps 647 mmHg 17%
11:00 +26°C° 0 mm 5 mps 647 mmHg 15%
12:00 +27°C° 0 mm 4 mps 646 mmHg 14%
13:00 +28°C° 0 mm 3 mps 646 mmHg 13%
14:00 +28°C° 0 mm 3 mps 646 mmHg 12%
15:00 +28°C° 0 mm 3 mps 645 mmHg 12%
16:00 +27°C° 0 mm 3 mps 645 mmHg 12%
17:00 +25°C° 0 mm 3 mps 645 mmHg 15%
18:00 +21°C° 0 mm 3 mps 645 mmHg 19%
19:00 +18°C° 0 mm 4 mps 644 mmHg 22%
20:00 +17°C° 0 mm 4 mps 644 mmHg 23%
21:00 +15°C° 0 mm 4 mps 644 mmHg 25%
22:00 +14°C° 0 mm 4 mps 644 mmHg 26%
23:00 +14°C° 0 mm 4 mps 644 mmHg 26%
Show more